TimeEDT,TemperatureF,Dew PointF,Humidity,Sea Level PressureIn,VisibilityMPH,Wind Direction,Wind SpeedMPH,Gust SpeedMPH,PrecipitationIn,Events,Conditions,WindDirDegrees,DateUTC
12:56 AM,43.0,23.0,45,30.22,10.0,Variable,4.6,-,N/A,,Clear,0,2013-03-10 05:56:00
1:56 AM,43.9,22.1,42,30.19,10.0,Variable,3.5,-,N/A,,Mostly Cloudy,0,2013-03-10 06:56:00
4:56 AM,41.0,23.0,49,30.17,10.0,Calm,Calm,-,N/A,,Scattered Clouds,0,2013-03-10 08:56:00
5:56 AM,43.9,22.1,42,30.16,10.0,Calm,Calm,-,N/A,,Partly Cloudy,0,2013-03-10 09:56:00
6:56 AM,43.0,23.0,45,30.17,10.0,Calm,Calm,-,N/A,,Mostly Cloudy,0,2013-03-10 10:56:00
8:56 AM,45.9,22.1,39,30.19,10.0,Variable,5.8,-,N/A,,Clear,0,2013-03-10 12:56:00
9:56 AM,46.9,25.2,43,30.20,10.0,South,4.6,-,N/A,,Partly Cloudy,180,2013-03-10 13:56:00
10:56 AM,50.0,27.1,41,30.20,10.0,Variable,6.9,-,N/A,,Scattered Clouds,0,2013-03-10 14:56:00
11:56 AM,52.9,28.0,38,30.18,10.0,Variable,6.9,-,N/A,,Scattered Clouds,0,2013-03-10 15:56:00
12:56 PM,59.0,30.0,33,30.16,10.0,Variable,4.6,-,N/A,,Partly Cloudy,0,2013-03-10 16:56:00
1:56 PM,61.0,30.0,31,30.12,10.0,Variable,6.9,-,N/A,,Clear,0,2013-03-10 17:56:00
2:56 PM,64.9,32.0,29,30.08,10.0,SE,8.1,-,N/A,,Clear,140,2013-03-10 18:56:00
3:56 PM,68.0,32.9,27,30.06,10.0,SSE,10.4,-,N/A,,Scattered Clouds,160,2013-03-10 19:56:00
4:56 PM,68.0,32.0,26,30.04,10.0,SSE,9.2,-,N/A,,Clear,160,2013-03-10 20:56:00
5:56 PM,68.0,32.0,26,30.05,10.0,South,8.1,-,N/A,,Clear,190,2013-03-10 21:56:00
6:56 PM,65.8,32.0,28,30.04,10.0,Calm,Calm,-,N/A,,Clear,0,2013-03-10 22:56:00
7:56 PM,63.9,30.0,28,30.05,10.0,Calm,Calm,-,N/A,,Clear,0,2013-03-10 23:56:00
8:56 PM,59.9,30.0,32,30.04,10.0,ESE,5.8,-,N/A,,Clear,120,2013-03-11 00:56:00
9:56 PM,59.0,30.0,33,30.04,10.0,SE,11.5,-,N/A,,Clear,140,2013-03-11 01:56:00
10:56 PM,57.9,30.0,35,30.04,10.0,Variable,4.6,-,N/A,,Clear,0,2013-03-11 02:56:00
11:56 PM,56.8,30.0,36,30.02,10.0,SE,4.6,-,N/A,,Clear,140,2013-03-11 03:56:00
12:56 AM,56.8,30.0,36,29.99,10.0,SE,9.2,-,N/A,,Clear,140,2013-03-11 04:56:00